May 23, 2022

Time Code Weather Temp. Visibility Clouds Wind METAR/SPECI
9:50 am
V
63 °F 6¼ mi+ - Var   Var 2 kt METAR EDDS 230750Z AUTO VRB02KT CAVOK 17/13 Q1006 NOSIG
9:20 am
V
61 °F 6¼ mi+ - 090°   090° 6 kt METAR EDDS 230720Z AUTO 09006KT 040V150 CAVOK 16/13 Q1006 NOSIG
8:50 am
V
59 °F 6¼ mi+ - 090°   090° 7 kt METAR EDDS 230650Z AUTO 09007KT 070V140 CAVOK 15/13 Q1006 RESHGS NOSIG
8:20 am
V
59 °F 6¼ mi+ - 100°   100° 5 kt METAR EDDS 230620Z AUTO 10005KT 050V180 9999 -SHRA FEW///TCU 15/13 Q1007 NOSIG
7:50 am
V
57 °F 6¼ mi+ - 100°   100° 5 kt METAR EDDS 230550Z AUTO 10005KT 070V170 9999 -RA NSC 14/12 Q1008 NOSIG
7:20 am
V
55 °F 6¼ mi+ - 120°   120° 4 kt METAR EDDS 230520Z AUTO 12004KT 080V190 9999 FEW036 13/12 Q1009 RETSGR NOSIG
6:50 am
V
57 °F 5⅝ mi - 300°   300° 10 kt METAR EDDS 230450Z AUTO 30010KT 9000 +TSGRRA FEW006 BKN///CB 14/11 Q1010 BECMG 29005KT NSW
6:20 am
V
57 °F 6¼ mi+ - 270°   270° 5 kt METAR EDDS 230420Z AUTO 27005KT 9999 SHRA FEW///CB 14/10 Q1007 TEMPO TL0500 4000 TSRA
5:50 am
V
54 °F 6¼ mi+ - Var   Var 1 kt METAR EDDS 230350Z AUTO VRB01KT CAVOK 12/10 Q1007
5:20 am
V
54 °F 6¼ mi+ - 170°   170° 1 kt METAR EDDS 230320Z AUTO 17001KT CAVOK 12/10 Q1007
4:50 am
V
54 °F 6¼ mi+ - 080°   080° 2 kt METAR EDDS 230250Z AUTO 08002KT CAVOK 12/10 Q1007
4:20 am
V
55 °F 6¼ mi+ - Var   Var 2 kt METAR EDDS 230220Z AUTO VRB02KT CAVOK 13/10 Q1008
3:50 am
V
55 °F 6¼ mi+ - Var   Var 2 kt METAR EDDS 230150Z AUTO VRB02KT CAVOK 13/10 Q1008
3:20 am
V
55 °F 6¼ mi+ - Var   Var 1 kt METAR EDDS 230120Z AUTO VRB01KT CAVOK 13/10 Q1008
2:50 am
V
57 °F 6¼ mi+ - Var   Var 2 kt METAR EDDS 230050Z AUTO VRB02KT CAVOK 14/10 Q1008
2:20 am
V
59 °F 6¼ mi+ - Var   Var 2 kt METAR EDDS 230020Z AUTO VRB02KT CAVOK 15/10 Q1009
1:50 am
V
59 °F 6¼ mi+ - Var   Var 2 kt METAR EDDS 222350Z AUTO VRB02KT CAVOK 15/10 Q1009
1:20 am
V
59 °F 6¼ mi+ - Var   Var 1 kt METAR EDDS 222320Z AUTO VRB01KT CAVOK 15/10 Q1010
12:50 am
V
59 °F 6¼ mi+ - 330°   330° 1 kt METAR EDDS 222250Z AUTO 33001KT CAVOK 15/10 Q1010
12:20 am
V
59 °F 6¼ mi+ - Var   Var 1 kt METAR EDDS 222220Z AUTO VRB01KT CAVOK 15/10 Q1010

May 22, 2022

Time Code Weather Temp. Visibility Clouds Wind METAR/SPECI
11:50 pm
V
61 °F 6¼ mi+ - Var   Var 1 kt METAR EDDS 222150Z AUTO VRB01KT CAVOK 16/11 Q1011
11:20 pm
V
64 °F 6¼ mi+ - Var   Var 1 kt METAR EDDS 222120Z AUTO VRB01KT CAVOK 18/10 Q1011
10:50 pm
V
63 °F 6¼ mi+ - 330°   330° 4 kt METAR EDDS 222050Z AUTO 33004KT CAVOK 17/11 Q1011
10:20 pm
V
64 °F 6¼ mi+ - 350°   350° 3 kt METAR EDDS 222020Z AUTO 35003KT 320V020 CAVOK 18/10 Q1011
9:50 pm
V
63 °F 6¼ mi+ - Var   Var 1 kt METAR EDDS 221950Z AUTO VRB01KT CAVOK 17/10 Q1011 NOSIG
9:20 pm
V
66 °F 6¼ mi+ - Var   Var 1 kt METAR EDDS 221920Z AUTO VRB01KT CAVOK 19/09 Q1011 NOSIG
8:50 pm
V
68 °F 6¼ mi+ - Var   Var 2 kt METAR EDDS 221850Z AUTO VRB02KT CAVOK 20/09 Q1011 RESHRA BECMG 07005KT
8:20 pm
V
70 °F 6¼ mi+ - 360°   360° 3 kt METAR EDDS 221820Z AUTO 36003KT 330V050 CAVOK 21/07 Q1012 NOSIG
7:50 pm
V
70 °F 6¼ mi+ - 130°   130° 2 kt METAR EDDS 221750Z AUTO 13002KT CAVOK 21/08 Q1012 NOSIG
7:20 pm
V
70 °F 6¼ mi+ - 040°   040° 6 kt METAR EDDS 221720Z AUTO 04006KT CAVOK 21/08 Q1011 NOSIG
6:50 pm
V
70 °F 6¼ mi+ - 060°   060° 6 kt METAR EDDS 221650Z AUTO 06006KT 010V080 CAVOK 21/08 Q1012
6:20 pm
V
72 °F 6¼ mi+ - 040°   040° 6 kt METAR EDDS 221620Z AUTO 04006KT CAVOK 22/08 Q1012 RESHRA NOSIG
5:50 pm
V
72 °F 6¼ mi+ - 020°   020° 7 kt METAR EDDS 221550Z AUTO 02007KT 350V050 9999 -SHRA FEW///TCU 22/08 Q1013 NOSIG
5:20 pm
V
73 °F 6¼ mi+ - 010°   010° 5 kt METAR EDDS 221520Z AUTO 01005KT 300V070 CAVOK 23/08 Q1013 NOSIG
4:50 pm
V
75 °F 6¼ mi+ - 030°   030° 5 kt METAR EDDS 221450Z AUTO 03005KT 300V110 CAVOK 24/10 Q1013 NOSIG
4:20 pm
V
77 °F 6¼ mi+ - Var   Var 4 kt METAR EDDS 221420Z AUTO VRB04KT CAVOK 25/10 Q1013
3:50 pm
V
77 °F 6¼ mi+ - Var   Var 2 kt METAR EDDS 221350Z AUTO VRB02KT CAVOK 25/06 Q1013 NOSIG
3:20 pm
V
73 °F 6¼ mi+ - Var   Var 3 kt METAR EDDS 221320Z AUTO VRB03KT CAVOK 23/08 Q1013 NOSIG
2:50 pm
V
75 °F 6¼ mi+ - 130°   130° 3 kt METAR EDDS 221250Z AUTO 13003KT 060V220 CAVOK 24/09 Q1014 NOSIG
2:20 pm
V
73 °F 6¼ mi+ - Var   Var 4 kt METAR EDDS 221220Z AUTO VRB04KT CAVOK 23/08 Q1014 NOSIG
1:50 pm
V
72 °F 6¼ mi+ - 360°   360° 4 kt METAR EDDS 221150Z AUTO 36004KT 280V090 CAVOK 22/10 Q1015
1:20 pm
V
73 °F 6¼ mi+ - Var   Var 3 kt METAR EDDS 221120Z AUTO VRB03KT CAVOK 23/09 Q1015 NOSIG
12:50 pm
V
72 °F 6¼ mi+ - Var   Var 2 kt METAR EDDS 221050Z AUTO VRB02KT CAVOK 22/09 Q1015 NOSIG
12:20 pm
V
70 °F 6¼ mi+ - Var   Var 2 kt METAR EDDS 221020Z AUTO VRB02KT CAVOK 21/09 Q1016 NOSIG
11:50 am
V
70 °F 6¼ mi+ - Var   Var 3 kt METAR EDDS 220950Z AUTO VRB03KT CAVOK 21/09 Q1016 NOSIG
11:20 am
V
68 °F 6¼ mi+ - Var   Var 3 kt METAR EDDS 220920Z AUTO VRB03KT CAVOK 20/09 Q1016 NOSIG
10:50 am
V
66 °F 6¼ mi+ - Var   Var 2 kt METAR EDDS 220850Z AUTO VRB02KT CAVOK 19/09 Q1016 NOSIG
10:20 am
V
66 °F 6¼ mi+ - Var   Var 2 kt METAR EDDS 220820Z AUTO VRB02KT CAVOK 19/10 Q1016 NOSIG
9:50 am
V
64 °F 6¼ mi+ - Var   Var 2 kt METAR EDDS 220750Z AUTO VRB02KT CAVOK 18/09 Q1017 NOSIG
9:20 am
V
63 °F 6¼ mi+ - Var   Var 2 kt METAR EDDS 220720Z AUTO VRB02KT CAVOK 17/10 Q1017 NOSIG
8:50 am
V
61 °F 6¼ mi+ - Var   Var 1 kt METAR EDDS 220650Z AUTO VRB01KT CAVOK 16/10 Q1017 NOSIG
8:20 am
V
59 °F 6¼ mi+ - Var   Var 1 kt METAR EDDS 220620Z AUTO VRB01KT CAVOK 15/09 Q1017 NOSIG
7:50 am
V
57 °F 6¼ mi+ - Var   Var 1 kt METAR EDDS 220550Z AUTO VRB01KT CAVOK 14/10 Q1017 NOSIG
7:20 am
V
52 °F 6¼ mi+ - 040°   040° 3 kt METAR EDDS 220520Z AUTO 04003KT 010V080 CAVOK 11/09 Q1017 NOSIG
6:50 am
V
52 °F 6¼ mi+ - 060°   060° 1 kt METAR EDDS 220450Z AUTO 06001KT CAVOK 11/08 Q1017 NOSIG
6:20 am
V
48 °F 6¼ mi+ - Var   Var 1 kt METAR EDDS 220420Z AUTO VRB01KT CAVOK 09/08 Q1018 NOSIG
5:50 am
V
46 °F 6¼ mi+ - 080°   080° 1 kt METAR EDDS 220350Z AUTO 08001KT CAVOK 08/08 Q1018
5:20 am
V
46 °F 6¼ mi+ - Var   Var 2 kt METAR EDDS 220320Z AUTO VRB02KT CAVOK 08/07 Q1018
4:50 am
V
46 °F 6¼ mi+ - 100°   100° 1 kt METAR EDDS 220250Z AUTO 10001KT CAVOK 08/08 Q1018
4:20 am
V
46 °F 6¼ mi+ - Var   Var 1 kt METAR EDDS 220220Z AUTO VRB01KT CAVOK 08/07 Q1019
3:50 am
V
48 °F 6¼ mi+ - 020°   020° 2 kt METAR EDDS 220150Z AUTO 02002KT CAVOK 09/08 Q1019
3:20 am
V
50 °F 6¼ mi+ - Var   Var 2 kt METAR EDDS 220120Z AUTO VRB02KT CAVOK 10/08 Q1019
2:50 am
V
50 °F 6¼ mi+ - 050°   050° 2 kt METAR EDDS 220050Z AUTO 05002KT CAVOK 10/08 Q1019
2:20 am
V
50 °F 6¼ mi+ - Var   Var 2 kt METAR EDDS 220020Z AUTO VRB02KT CAVOK 10/08 Q1019
1:50 am
V
50 °F 6¼ mi+ - Var   Var 1 kt METAR EDDS 212350Z AUTO VRB01KT CAVOK 10/08 Q1019
1:20 am
V
52 °F 6¼ mi+ - Var   Var 1 kt METAR EDDS 212320Z AUTO VRB01KT CAVOK 11/09 Q1019
12:50 am
V
50 °F 6¼ mi+ - Var   Var 1 kt METAR EDDS 212250Z AUTO VRB01KT CAVOK 10/07 Q1020
12:20 am
V
54 °F 6¼ mi+ - Var   Var 2 kt METAR EDDS 212220Z AUTO VRB02KT CAVOK 12/08 Q1020

May 21, 2022

Time Code Weather Temp. Visibility Clouds Wind METAR/SPECI
11:50 pm
V
57 °F 6¼ mi+ - 270°   270° 2 kt METAR EDDS 212150Z AUTO 27002KT CAVOK 14/08 Q1020
11:20 pm
V
55 °F 6¼ mi+ - 260°   260° 2 kt METAR EDDS 212120Z AUTO 26002KT CAVOK 13/08 Q1020
10:50 pm
V
59 °F 6¼ mi+ - 310°   310° 2 kt METAR EDDS 212050Z AUTO 31002KT CAVOK 15/08 Q1020
10:20 pm
V
59 °F 6¼ mi+ - Var   Var 1 kt METAR EDDS 212020Z AUTO VRB01KT CAVOK 15/08 Q1020
9:50 pm
V
61 °F 6¼ mi+ - Var   Var 1 kt METAR EDDS 211950Z AUTO VRB01KT CAVOK 16/08 Q1020 NOSIG
9:20 pm
V
63 °F 6¼ mi+ - 010°   010° 4 kt METAR EDDS 211920Z AUTO 01004KT 340V050 CAVOK 17/08 Q1020 NOSIG
8:50 pm
V
64 °F 6¼ mi+ - 030°   030° 5 kt METAR EDDS 211850Z AUTO 03005KT 010V070 CAVOK 18/08 Q1020 NOSIG
8:20 pm
V
66 °F 6¼ mi+ - 030°   030° 4 kt METAR EDDS 211820Z AUTO 03004KT CAVOK 19/08 Q1020 NOSIG
7:50 pm
V
66 °F 6¼ mi+ - 360°   360° 4 kt METAR EDDS 211750Z AUTO 36004KT 330V040 CAVOK 19/08 Q1020 NOSIG
7:20 pm
V
68 °F 6¼ mi+ - 330°   330° 8 kt METAR EDDS 211720Z AUTO 33008KT 310V010 CAVOK 20/08 Q1020 NOSIG
6:50 pm
V
70 °F 6¼ mi+ - 320°   320° 8 kt METAR EDDS 211650Z AUTO 32008KT 300V360 CAVOK 21/08 Q1020 NOSIG
6:20 pm
V
70 °F 6¼ mi+ - 340°   340° 10 kt METAR EDDS 211620Z AUTO 34010KT CAVOK 21/08 Q1020 NOSIG
5:50 pm
V
70 °F 6¼ mi+ - 310°   310° 9 kt METAR EDDS 211550Z AUTO 31009KT CAVOK 21/08 Q1021 NOSIG
5:20 pm
V
70 °F 6¼ mi+ - 330°   330° 10 kt METAR EDDS 211520Z AUTO 33010KT CAVOK 21/07 Q1021 NOSIG
4:50 pm
V
72 °F 6¼ mi+ - 310°   310° 9 kt METAR EDDS 211450Z AUTO 31009KT 270V350 CAVOK 22/07 Q1021 NOSIG
4:20 pm
V
72 °F 6¼ mi+ - 300°   300° 10 kt METAR EDDS 211420Z AUTO 30010KT 250V340 CAVOK 22/08 Q1021 NOSIG
3:50 pm
V
72 °F 6¼ mi+ - 300°   300° 10 kt METAR EDDS 211350Z AUTO 30010KT 260V350 CAVOK 22/08 Q1022 NOSIG
3:20 pm
V
72 °F 6¼ mi+ - 320°   320° 9 kt METAR EDDS 211320Z AUTO 32009KT 290V020 CAVOK 22/07 Q1022 NOSIG
2:50 pm
V
72 °F 6¼ mi+ - 340°   340° 8 kt METAR EDDS 211250Z AUTO 34008KT 290V030 CAVOK 22/08 Q1022 NOSIG
2:20 pm
V
70 °F 6¼ mi+ - 360°   360° 7 kt METAR EDDS 211220Z AUTO 36007KT 300V090 CAVOK 21/09 Q1022 NOSIG
1:50 pm
V
70 °F 6¼ mi+ - 360°   360° 7 kt METAR EDDS 211150Z AUTO 36007KT 320V100 CAVOK 21/09 Q1022 NOSIG
1:20 pm
V
70 °F 6¼ mi+ - 040°   040° 5 kt METAR EDDS 211120Z AUTO 04005KT 360V130 CAVOK 21/08 Q1022 NOSIG
12:50 pm
V
68 °F 6¼ mi+ - Var   Var 6 kt METAR EDDS 211050Z AUTO VRB06KT CAVOK 20/07 Q1023 NOSIG
12:20 pm
V
68 °F 6¼ mi+ - 320°   320° 7 kt METAR EDDS 211020Z AUTO 32007KT 250V360 CAVOK 20/08 Q1023 NOSIG
11:50 am
V
66 °F 6¼ mi+ - 300°   300° 6 kt METAR EDDS 210950Z AUTO 30006KT 210V360 9999 FEW046 19/07 Q1023 NOSIG
11:20 am
V
66 °F 6¼ mi+ - 260°   260° 7 kt METAR EDDS 210920Z AUTO 26007KT 170V290 9999 FEW045 19/07 Q1023
10:50 am
V
64 °F 6¼ mi+ - 270°   270° 7 kt METAR EDDS 210850Z AUTO 27007KT 230V320 CAVOK 18/07 Q1024 NOSIG
10:20 am
V
64 °F 6¼ mi+ - 290°   290° 8 kt METAR EDDS 210820Z AUTO 29008KT 250V360 CAVOK 18/07 Q1024 NOSIG
9:50 am
V
63 °F 6¼ mi+ - 300°   300° 8 kt METAR EDDS 210750Z AUTO 30008KT 270V330 CAVOK 17/08 Q1023 NOSIG
9:20 am
V
63 °F 6¼ mi+ - 290°   290° 10 kt METAR EDDS 210720Z AUTO 29010KT 260V320 CAVOK 17/08 Q1024
Older data

Download our app

Easy access to all aviation weather on your mobile phone and tablet.
With many features not available on the website, like offline support and a personal airport list.

We and third parties follow your internet behavior on our website with cookies. If you continue, we assume you agree with our cookie policy. Learn more